Change the Weather History Date:

Saturday, May 5, 2012

  Actual Average Record
Temperature  
Mean Temperature 41 °F 48 °F  
Max Temperature 58 °F 62 °F 86 °F (1992)
Min Temperature 23 °F 35 °F 23 °F (1999)
Degree Days  
Heating Degree Days 24 17  
Month to date heating degree days 111 86  
Since 1 July heating degree days 6254 6405  
Cooling Degree Days 0 0  
Month to date cooling degree days 0 0  
Year to date cooling degree days 0 0  
Moisture  
Dew Point 27 °F    
Average Humidity 62    
Maximum Humidity 96    
Minimum Humidity 24    
Precipitation  
Precipitation 0.00 in 0.07 in 0.41 in (1979)
Month to date precipitation 0.06 0.35  
Year to date precipitation 4.59 6.76  
Snow  
Snow 0.00 in - - ()
Month to date snowfall 0.0  
Year to date snowfall 0.0  
Snow Depth 0.00 in    
Sea Level Pressure  
Sea Level Pressure 30.34 in    
Wind  
Wind Speed 6 mph (NNW)    
Max Wind Speed 20 mph    
Max Gust Speed 22 mph    
Visibility 10 miles    
Events      
T = Trace of Precipitation, MM = Missing Value Source: NWS Daily Summary

Daily Weather History Graph

Daily Weather History Graph

Search for Another Location

Airport or City:

Trip Planner

Search our weather history database for the weather conditions in past years. The results will help you decide how hot, cold, wet, or windy it might be!

Date:

Astronomy

May. 05, 2012 Rise Set
Actual Time 5:56 AM PDT 8:11 PM PDT
Civil Twilight 5:25 AM PDT 8:42 PM PDT
Nautical Twilight 4:47 AM PDT 9:20 PM PDT
Astronomical Twilight 4:05 AM PDT 10:03 PM PDT
Moon 8:10 PM PDT (5/5) 5:23 AM PDT (5/5)
Length of Visible Light 15h 16m
Length of Day
14h 14m
Full, 100% of the Moon is Illuminated
May 5
Full
May 5
Full
May 12
Last Quarter
May 20
New
May 28
First Quarter

Hourly Weather History & Observations

Time (PDT) Temp. Windchill Dew Point Humidity Pressure Visibility Wind Dir Wind Speed Gust Speed Precip Events Conditions
12:53 AM 33.1 °F 30.0 °F 27.0 °F 78% 30.34 in 10.0 mi WNW 3.5 mph - N/A   Overcast
1:53 AM 33.1 °F - 28.0 °F 82% 30.34 in 10.0 mi Calm Calm - N/A   Overcast
2:07 AM 33.8 °F - 28.4 °F 81% 30.32 in 10.0 mi Calm Calm - N/A   Overcast
2:53 AM 28.9 °F - 26.1 °F 89% 30.35 in 10.0 mi Calm Calm - N/A   Clear
3:53 AM 27.0 °F - 24.1 °F 89% 30.35 in 10.0 mi Calm Calm - N/A   Clear
4:53 AM 26.1 °F - 23.0 °F 88% 30.37 in 10.0 mi Calm Calm - N/A   Clear
5:53 AM 23.0 °F - 21.0 °F 92% 30.40 in 10.0 mi Calm Calm - N/A   Clear
6:01 AM 23.0 °F - 19.4 °F 86% 30.35 in 7.0 mi Calm Calm - N/A   Clear
6:53 AM 27.0 °F - 24.1 °F 89% 30.40 in 10.0 mi Calm Calm - N/A   Scattered Clouds
7:53 AM 33.1 °F - 28.0 °F 82% 30.40 in 10.0 mi Calm Calm - N/A   Scattered Clouds
8:53 AM 37.0 °F - 27.0 °F 67% 30.40 in 10.0 mi Calm Calm - N/A   Scattered Clouds
9:53 AM 42.1 °F 39.2 °F 28.0 °F 58% 30.39 in 10.0 mi ENE 4.6 mph - N/A   Scattered Clouds
10:53 AM 45.0 °F 42.6 °F 26.1 °F 48% 30.38 in 10.0 mi NNW 4.6 mph - N/A   Scattered Clouds
11:53 AM 46.9 °F - 25.0 °F 42% 30.36 in 10.0 mi Variable 5.8 mph - N/A   Partly Cloudy
12:53 PM 51.1 °F - 24.1 °F 35% 30.34 in 10.0 mi Variable 6.9 mph - N/A   Partly Cloudy
1:53 PM 54.0 °F - 23.0 °F 30% 30.32 in 10.0 mi Calm Calm - N/A   Partly Cloudy
2:53 PM 55.0 °F - 21.9 °F 28% 30.33 in 10.0 mi NNW 9.2 mph - N/A   Partly Cloudy
3:53 PM 57.0 °F - 21.0 °F 25% 30.31 in 10.0 mi NNW 13.8 mph - N/A   Partly Cloudy
5:53 PM 55.9 °F - 28.0 °F 34% 30.30 in 10.0 mi NW 13.8 mph - N/A   Partly Cloudy
6:53 PM 55.0 °F - 28.9 °F 37% 30.29 in 10.0 mi NNW 16.1 mph - N/A   Clear
7:53 PM 51.1 °F - 32.0 °F 48% 30.30 in 10.0 mi NNW 13.8 mph - N/A   Clear
8:53 PM 48.0 °F - 33.1 °F 56% 30.30 in 10.0 mi NNW 10.4 mph - N/A   Clear
9:53 PM 48.0 °F - 33.1 °F 56% 30.31 in 10.0 mi North 3.5 mph - N/A   Clear
10:53 PM 46.0 °F 43.9 °F 34.0 °F 63% 30.32 in 10.0 mi NW 4.6 mph - N/A   Clear
11:53 PM 39.9 °F 36.7 °F 30.9 °F 70% 30.32 in 10.0 mi NNE 4.6 mph - N/A   Clear